User: anonymous   Login
Location: Bruch
(44.2051°N, 0.4120°E)
Time: 00:28:41
(UTC+00:00)
Language:

ATLAS 2AS CENTAUR R/B - Orbit

View from above orbital plane
View from above orbital plane
View from above satellite
View from above satellite

Ground track
Ground track

The orbit data is extracted from the following two-line orbital elements,

1 28096U 03054B   21044.76336922 0.00000000  00000-0  00000-0 0    09
2 28096  63.6755 277.5184 0212231 221.3652 138.5995 13.40863888    04
Epoch (UTC): 13 February 2021 18:19:15
Eccentricity: 0.0212231
inclination: 63.6755°
perigee height: 947 km
apogee height: 1265 km
right ascension of ascending node: 277.5184°
argument of perigee: 221.3652°
revolutions per day: 13.40863888
mean anomaly at epoch: 138.5995°
orbit number at epoch: 0

The dashed part of the orbit path shows where the satellite is in the earth's shadow,  

DLR